TimeCDT,TemperatureF,Dew PointF,Humidity,Sea Level PressureIn,VisibilityMPH,Wind Direction,Wind SpeedMPH,Gust SpeedMPH,PrecipitationIn,Events,Conditions,WindDirDegrees,DateUTC
12:53 AM,59.0,46.0,62,29.78,10.0,NNE,21.9,29.9,0.00,,Mostly Cloudy,30,2011-10-27 05:53:00
1:53 AM,57.0,45.0,64,29.75,10.0,ENE,20.7,33.4,N/A,,Clear,60,2011-10-27 06:53:00
2:13 AM,55.4,44.6,67,29.85,10.0,NE,24.2,33.4,N/A,Thunderstorm,Mostly Cloudy,50,2011-10-27 07:13:00
2:26 AM,55.4,42.8,63,29.87,10.0,NE,21.9,34.5,N/A,Thunderstorm,Mostly Cloudy,40,2011-10-27 07:26:00
2:53 AM,54.0,43.0,66,29.76,10.0,ENE,26.5,36.8,0.00,Rain,Light Rain,60,2011-10-27 07:53:00
3:53 AM,51.1,45.0,80,29.80,10.0,NE,20.7,32.2,0.02,Rain,Light Rain,50,2011-10-27 08:53:00
4:45 AM,48.2,42.8,82,29.98,10.0,North,20.7,29.9,0.00,,Overcast,10,2011-10-27 09:45:00
4:53 AM,48.9,43.0,80,29.88,10.0,North,20.7,27.6,0.00,,Overcast,10,2011-10-27 09:53:00
5:53 AM,46.0,41.0,83,29.92,10.0,NNE,20.7,28.8,N/A,,Overcast,30,2011-10-27 10:53:00
6:53 AM,46.0,39.9,79,29.96,10.0,NNE,15.0,20.7,N/A,,Overcast,20,2011-10-27 11:53:00
7:53 AM,46.0,43.0,89,29.98,6.0,NNE,12.7,-,0.00,Rain,Light Rain,30,2011-10-27 12:53:00
8:04 AM,44.6,44.6,100,30.07,5.0,NNE,13.8,-,0.00,Rain,Light Rain,20,2011-10-27 13:04:00
8:26 AM,44.6,42.8,93,30.08,4.0,NNE,17.3,20.7,0.00,Rain,Light Rain,20,2011-10-27 13:26:00
8:48 AM,44.6,44.6,100,30.08,1.8,NNE,11.5,-,0.01,Rain,Light Rain,20,2011-10-27 13:48:00
8:53 AM,45.0,44.1,97,30.04,1.8,North,5.8,-,0.01,Rain,Light Rain,360,2011-10-27 13:53:00
9:03 AM,44.6,44.6,100,30.11,2.0,North,8.1,-,0.00,Rain,Light Rain,10,2011-10-27 14:03:00
9:22 AM,44.6,42.8,93,30.11,3.0,NNE,12.7,-,0.01,Rain,Light Rain,30,2011-10-27 14:22:00
9:46 AM,44.6,42.8,93,30.12,9.0,NNE,13.8,21.9,0.01,,Overcast,20,2011-10-27 14:46:00
9:53 AM,45.0,43.0,93,30.05,10.0,NNE,13.8,20.7,0.01,,Overcast,20,2011-10-27 14:53:00
10:15 AM,44.6,42.8,93,30.15,10.0,North,11.5,-,N/A,,Overcast,360,2011-10-27 15:15:00
10:34 AM,44.6,42.8,93,30.15,10.0,North,13.8,20.7,N/A,,Overcast,10,2011-10-27 15:34:00
10:50 AM,44.6,42.8,93,30.16,10.0,North,13.8,-,N/A,,Overcast,360,2011-10-27 15:50:00
10:53 AM,44.1,42.1,93,30.10,10.0,North,16.1,-,N/A,,Overcast,360,2011-10-27 15:53:00
11:03 AM,44.6,42.8,93,30.16,7.0,North,13.8,-,N/A,Rain,Light Rain,360,2011-10-27 16:03:00
11:10 AM,44.6,42.8,93,30.16,5.0,North,13.8,-,0.00,Rain,Light Rain,10,2011-10-27 16:10:00
11:29 AM,44.6,42.8,93,30.16,10.0,NNE,11.5,-,0.00,,Overcast,30,2011-10-27 16:29:00
11:44 AM,46.4,42.8,87,30.16,10.0,NNE,13.8,-,0.00,,Overcast,20,2011-10-27 16:44:00
11:53 AM,46.4,42.8,87,30.17,10.0,North,13.8,20.7,N/A,,Overcast,10,2011-10-27 16:53:00
12:04 PM,46.4,41.0,81,30.17,10.0,North,10.4,20.7,N/A,,Overcast,10,2011-10-27 17:04:00
12:53 PM,46.0,41.0,83,30.12,10.0,North,11.5,-,N/A,,Overcast,10,2011-10-27 17:53:00
1:09 PM,44.6,41.0,87,30.16,10.0,North,11.5,-,N/A,,Overcast,350,2011-10-27 18:09:00
1:21 PM,46.4,41.0,81,30.16,10.0,North,11.5,-,N/A,,Overcast,10,2011-10-27 18:21:00
1:53 PM,46.0,39.9,79,30.11,10.0,North,12.7,-,N/A,,Overcast,360,2011-10-27 18:53:00
2:53 PM,46.0,37.9,73,30.11,10.0,North,15.0,-,N/A,,Overcast,10,2011-10-27 19:53:00
3:53 PM,46.0,37.9,73,30.11,10.0,North,11.5,-,N/A,,Overcast,10,2011-10-27 20:53:00
4:53 PM,46.0,37.0,71,30.12,10.0,North,13.8,-,N/A,,Overcast,10,2011-10-27 21:53:00
5:53 PM,46.4,37.4,71,30.16,10.0,North,9.2,-,N/A,,Overcast,360,2011-10-27 22:53:00
6:19 PM,46.4,37.4,71,30.17,10.0,NNE,9.2,-,N/A,,Overcast,20,2011-10-27 23:19:00
6:53 PM,46.0,37.0,71,30.15,10.0,North,8.1,-,N/A,,Overcast,10,2011-10-27 23:53:00
7:53 PM,44.1,37.0,76,30.17,10.0,North,4.6,-,N/A,,Mostly Cloudy,360,2011-10-28 00:53:00
8:53 PM,42.1,37.0,82,30.19,10.0,NNE,4.6,-,N/A,,Partly Cloudy,30,2011-10-28 01:53:00
9:07 PM,42.8,37.4,81,30.21,10.0,NNE,3.5,-,N/A,,Mostly Cloudy,30,2011-10-28 02:07:00
9:28 PM,42.8,37.4,81,30.22,10.0,NNE,3.5,-,N/A,,Scattered Clouds,30,2011-10-28 02:28:00
9:37 PM,42.8,37.4,81,30.21,10.0,Calm,Calm,-,N/A,,Mostly Cloudy,0,2011-10-28 02:37:00
9:53 PM,43.0,37.9,82,30.20,10.0,Calm,Calm,-,N/A,,Overcast,0,2011-10-28 02:53:00
10:53 PM,45.0,37.9,76,30.20,10.0,Calm,Calm,-,N/A,,Overcast,0,2011-10-28 03:53:00
11:53 PM,45.0,37.9,76,30.21,10.0,Calm,Calm,-,N/A,,Overcast,0,2011-10-28 04:53:00